Weather History for Melilla, Spain

Change the Weather History Date:

Thursday, December 5, 2013

  Actual Average Record
Temperature  
Mean Temperature 58 °F -  
Max Temperature 62 °F 64 °F 73 °F (2005)
Min Temperature 53 °F 52 °F 44 °F (2011)
Degree Days  
Heating Degree Days 8    
Growing Degree Days 8 (Base 50)    
Moisture  
Dew Point 52 °F    
Average Humidity 78    
Maximum Humidity 94    
Minimum Humidity 61    
Precipitation  
Precipitation 0.00 in 0.07 in - ()
Sea Level Pressure  
Sea Level Pressure 30.31 in    
Wind  
Wind Speed 2 mph ()    
Max Wind Speed 6 mph    
Max Gust Speed -    
Visibility 6.5 miles    
Events      
Averages and records for this station are not official NWS values.
T = Trace of Precipitation, MM = Missing Value Source: Averaged Metar Reports

Daily Weather History Graph

Daily Weather History Graph

Search for Another Location

Airport:

Trip Planner

Search our weather history database for the weather conditions in past years. The results will help you decide how hot, cold, wet, or windy it might be!

Date:

Astronomy

Dec. 05, 2013 Rise Set
Actual Time 8:05 AM CET 5:59 PM CET
Civil Twilight 7:37 AM CET 6:27 PM CET
Nautical Twilight 7:06 AM CET 6:58 PM CET
Astronomical Twilight 6:35 AM CET 7:29 PM CET
Moon 10:16 AM CET (12/5) 8:59 PM CET (12/5)
Length of Visible Light 10h 49m
Length of Day
9h 53m
Waxing Crescent, 9% of the Moon is Illuminated
Dec 5
Waxing Crescent
Dec 9
First Quarter
Dec 17
Full
Dec 25
Last Quarter
Jan 1
New

Hourly Weather History & Observations

Time (CET) Temp. Dew Point Humidity Pressure Visibility Wind Dir Wind Speed Gust Speed Precip Events Conditions
6:00 AM 53.6 °F 50.0 °F 88% 30.27 in 6.2 mi Calm Calm - N/A   Partly Cloudy
6:30 AM 53.6 °F 51.8 °F 94% 30.27 in 6.2 mi Calm Calm - N/A   Scattered Clouds
7:00 AM 54 °F 50 °F 80% 30.30 in 7 mi Calm Calm - -   Partly Cloudy
7:00 AM 53.6 °F 51.8 °F 94% 30.30 in 6.2 mi Calm Calm - N/A   Scattered Clouds
7:30 AM 53.6 °F 51.8 °F 94% 30.30 in 6.2 mi Calm Calm - N/A   Scattered Clouds
8:00 AM 53.6 °F 51.8 °F 94% 30.30 in 5.0 mi Calm Calm - N/A   Partly Cloudy
8:30 AM 53.6 °F 51.8 °F 94% 30.30 in 5.0 mi Calm Calm - N/A   Partly Cloudy
9:00 AM 53.6 °F 51.8 °F 94% 30.30 in 5.0 mi Calm Calm - N/A   Partly Cloudy
9:30 AM 59.0 °F 53.6 °F 82% 30.33 in 5.0 mi Calm Calm - N/A   Partly Cloudy
10:00 AM 59.0 °F 53.6 °F 82% 30.33 in 5.0 mi Variable 1.2 mph - N/A   Partly Cloudy
10:30 AM 60.8 °F 53.6 °F 77% 30.33 in 6.2 mi ESE 3.5 mph - N/A   Partly Cloudy
11:00 AM 60.8 °F 53.6 °F 77% 30.36 in 6.2 mi East 3.5 mph - N/A   Partly Cloudy
11:30 AM 62.6 °F 53.6 °F 72% 30.36 in 6.2 mi Variable 2.3 mph - N/A   Partly Cloudy
12:00 PM 62.6 °F 51.8 °F 68% 30.33 in 6.2 mi ESE 4.6 mph - N/A   Partly Cloudy
12:30 PM 62.6 °F 51.8 °F 68% 30.33 in 6.2 mi East 5.8 mph - N/A   Partly Cloudy
1:00 PM 62 °F 52 °F 61% 30.33 in 12 mi East 3.5 mph - -   Scattered Clouds
1:00 PM 62.6 °F 51.8 °F 68% 30.33 in 6.2 mi East 3.5 mph - N/A   Partly Cloudy
1:30 PM 62.6 °F 53.6 °F 72% 30.33 in 6.2 mi ENE 5.8 mph - N/A   Partly Cloudy
2:00 PM 60.8 °F 51.8 °F 72% 30.30 in 6.2 mi ENE 4.6 mph - N/A   Partly Cloudy
2:30 PM 60.8 °F 51.8 °F 72% 30.30 in - NE 5.8 mph - N/A   Clear
3:00 PM 60.8 °F 51.8 °F 72% 30.30 in - NE 5.8 mph - N/A   Clear
3:30 PM 60.8 °F 51.8 °F 72% 30.30 in - ENE 3.5 mph - N/A   Clear
4:00 PM 60.8 °F 51.8 °F 72% 30.30 in - East 3.5 mph - N/A   Clear
4:30 PM 60.8 °F 51.8 °F 72% 30.27 in - ENE 3.5 mph - N/A   Clear
5:00 PM 60.8 °F 50.0 °F 68% 30.27 in - East 3.5 mph - N/A   Clear
5:30 PM 60.8 °F 51.8 °F 72% 30.27 in - ESE 4.6 mph - N/A   Clear
6:00 PM 59.0 °F 51.8 °F 77% 30.27 in - Variable 2.3 mph - N/A   Clear
6:30 PM 59.0 °F 51.8 °F 77% 30.30 in - Variable 2.3 mph - N/A   Clear
7:00 PM 57 °F 50 °F 71% 30.29 in 12 mi Calm Calm - -   Scattered Clouds
7:00 PM 57.2 °F 51.8 °F 82% 30.30 in 6.2 mi SE 1.2 mph - N/A   Partly Cloudy
7:30 PM 57.2 °F 50.0 °F 77% 30.30 in 6.2 mi Variable 1.2 mph - N/A   Partly Cloudy